Location: Maccacari
(45.1333°N, 11.1333°E)
Time: 02:08:38
(UTC+00:00)

A-11 Canister half - Pass Details

Date: 29 January 2021
Orbit: 1525 x 1684 km, 47.3° (Epoch: 05 March)

Event Time Altitude Azimuth Distance (km) Brightness Sun altitude
Rises 20:59:21 0° 285° (WNW) 4,791 12.2 -48.6°
Reaches altitude 10° 21:05:12 10° 258° (WSW) 3,840 11.4 -49.5°
Maximum altitude 21:08:26 12° 238° (WSW) 3,694 11.1 -49.9°
Enters shadow 21:10:04 12° 228° (SW) 3,746 11.1 -50.2°
